Simultaneous Nadir Overpasses (SNOs) Predictions

Prediction of SNOs between LANDSAT-8 and METOP-A Satellite Orbit:

Table of predicted SNOs for the next 14.0 days since TLE Epoch: 7/10/2021
Index Date (LANDSAT-8) Time (LANDSAT-8) Lat,Lon (LANDSAT-8) SZA (LANDSAT-8 ) Date (METOP-A) Time (METOP-A) Lat,Lon (METOP-A) SZA (METOP-A ) Distance(km) Time Diff (sec)
1 07/12/2021 06:54:03 -81.35, -59.46 118.18 07/12/2021 06:53:32 -81.37, -59.52 118.20 1.66 31
2 07/12/2021 07:43:29 81.36, 108.31 61.84 07/12/2021 07:44:12 81.35, 108.22 61.85 1.86 43
3 07/15/2021 02:28:18 -81.36, 7.10 117.76 07/15/2021 02:27:53 -81.36, 6.94 117.78 2.73 25
4 07/15/2021 03:17:45 81.35, 174.46 62.21 07/15/2021 03:18:33 81.35, 174.66 62.26 3.45 48
5 07/17/2021 22:02:34 -81.35, 73.25 117.34 07/17/2021 22:02:14 -81.36, 73.38 117.32 2.67 20
6 07/17/2021 22:52:00 81.35,-119.05 62.68 07/17/2021 22:52:54 81.35,-118.91 62.72 2.23 54
7 07/20/2021 17:36:48 -81.35, 139.74 116.82 07/20/2021 17:36:34 -81.36, 139.81 116.81 1.34 14
8 07/20/2021 18:26:14 81.35, -52.58 63.20 07/20/2021 18:27:14 81.34, -52.51 63.23 1.38 60
9 07/23/2021 13:11:03 -81.35,-153.79 116.26 07/23/2021 13:10:55 -81.35,-153.79 116.26 0.47 8



Historial Predications of SNOs between LANDSAT-8 and METOP-A
